Temp
10 10 10 10 10 10 10 10 10 10 10 10 10 10 10 10 9 9 10 10 9 9 9 9 11 11 13 13 15 14 14 15 15 15 15 16 17 17 19 18 18 19 19 18 18 18 18
10 10 10 10 10 10 10 10 10 10 10 10 10 10 9 10 9 9 9 9 9 8 9 10 10 12 10 14 14 14 13 14 14 14 14 15 15 15 16 17 18 16 17 18 18 19 18
10 9 9 10 9 9 10 10 9 10 9 9 9 10 9 10 10 9 9 9 9 8 9 9 10 10 9 12 13 13 13 13 13 13 14 14 14 15 15 17 15 16 18 20 20 19 19
9 9 8 9 9 9 10 10 9 9 9 9 9 10 9 10 10 10 10 10 9 9 9 9 10 9 11 13 13 13 12 13 13 13 13 13 13 14 15 15 17 18 18 21 19 18 17
8 8 8 7 9 8 8 10 9 8 9 9 9 9 9 10 10 10 9 9 9 8 9 9 8 8 12 12 12 13 13 13 13 12 12 13 13 15 15 18 19 19 20 19 20 18 19
7 7 8 8 8 7 8 9 8 8 8 8 8 9 9 9 9 9 9 9 8 9 9 9 8 7 11 13 12 13 13 13 13 13 13 13 15 18 17 19 19 20 18 19 19 20 18
5 5 7 6 6 6 7 8 8 6 7 7 8 8 9 9 9 9 8 7 8 8 8 11 11 11 11 10 12 12 12 12 13 14 16 14 17 18 19 17 17 17 17 17 19 19 16
5 4 4 4 3 3 4 5 6 6 6 7 7 8 8 8 8 7 7 7 7 7 9 9 8 8 8 9 10 12 12 13 13 15 14 15 16 17 16 15 15 16 16 17 18 18 17
5 5 4 3 3 3 2 5 4 6 6 7 6 6 7 8 7 6 5 5 7 7 8 10 8 8 9 8 11 12 11 12 14 15 15 15 17 14 14 15 15 16 15 16 15 16 17
4 4 4 4 3 3 2 1 3 4 5 6 5 5 6 7 6 6 5 6 6 6 10 13 10 9 8 9 11 10 11 13 13 14 15 14 15 14 14 14 15 14 16 14 14 15 15
4 3 3 3 3 2 1 1 1 3 4 4 3 2 4 4 4 4 6 6 6 6 11 11 10 9 9 11 11 11 10 11 13 14 13 14 14 14 13 14 14 14 14 14 14 14 15
4 3 3 3 3 2 1 1 1 1 1 2 2 1 2 3 4 5 5 5 6 9 10 11 11 11 11 11 12 11 11 11 11 13 13 13 14 13 14 14 14 14 14 14 15 14 13
3 4 4 3 2 2 2 1 1 1 1 1 1 1 2 3 3 4 5 5 8 9 11 10 11 11 12 12 12 13 12 13 14 13 13 13 14 15 14 13 14 14 13 12 13 13 13
3 3 3 3 2 2 2 1 1 1 1 1 2 1 1 2 3 4 4 7 8 10 10 10 11 11 12 12 12 12 12 13 13 13 13 13 13 14 13 14 14 14 14 12 11 14 14
3 3 3 3 3 2 2 1 1 1 1 1 2 2 2 2 3 4 5 6 11 10 10 10 11 12 12 12 12 12 12 13 13 13 12 12 12 14 14 14 14 13 12 14 12 12 11
2 3 3 3 2 2 2 2 1 1 1 1 2 1 2 2 3 3 6 7 8 7 8 9 11 11 11 11 11 11 12 12 12 12 13 12 11 13 13 14 14 14 15 12 11 10 11
2 2 3 2 2 2 2 1 1 1 1 1 1 1 2 2 2 4 5 8 7 6 7 9 9 9 10 10 10 11 11 12 12 12 12 12 11 12 12 13 13 13 12 12 11 11 10
2 2 2 3 2 2 2 1 1 1 1 0 1 2 1 1 3 4 5 6 5 6 6 8 8 8 8 9 9 9 10 11 11 11 11 12 11 9 12 14 14 14 13 13 10 11 11
1 2 2 2 2 2 1 2 1 1 0 0 1 1 1 1 4 3 5 5 5 6 7 7 7 7 7 6 6 7 9 10 10 11 11 11 10 10 12 12 12 12 13 12 12 11 9
1 1 2 2 1 1 1 2 1 1 1 1 1 1 0 1 2 5 5 5 5 4 6 6 6 6 7 5 7 5 8 9 8 9 7 9 9 9 9 11 12 11 12 12 11 7 9
1 1 2 2 2 1 1 2 1 1 1 0 1 3 2 1 1 4 4 4 5 5 5 5 5 6 6 4 5 6 7 8 8 8 8 9 7 9 10 10 11 10 10 11 11 11 9
0 1 1 1 1 1 1 1 1 1 1 0 1 2 1 4 3 3 3 3 5 6 5 5 5 7 6 6 6 6 7 7 6 8 8 9 7 5 5 8 10 8 6 5 8 9 10
0 0 1 0 0 1 1 1 1 1 -0 -0 0 1 2 3 4 3 3 4 4 5 5 5 6 6 6 6 6 6 6 6 6 6 7 6 7 7 7 9 9 8 7 7 10 11 10
0 -0 1 0 1 0 1 1 0 0 -0 0 -0 1 2 3 4 4 4 4 5 5 5 5 5 5 5 4 5 4 4 5 5 6 6 6 7 7 6 8 7 8 10 11 10 10 11
1 0 0 0 0 0 1 0 0 1 0 0 -0 -0 0 2 3 4 4 4 4 4 4 4 5 5 5 1 3 3 5 4 6 7 6 6 6 7 6 9 10 11 12 9 8 10 11
-0 -0 -0 0 0 -0 0 0 0 0 -0 -0 0 0 0 2 3 2 3 4 4 4 4 4 4 4 4 2 2 4 6 7 8 8 8 8 7 6 8 6 8 11 10 8 9 9 8
-0 -0 -0 -0 -0 -0 -0 -0 0 -0 -0 -0 -1 -0 0 0 1 1 2 3 3 4 4 4 4 4 3 2 3 5 7 9 8 8 5 6 6 5 7 7 9 11 9 7 8 9 7
-0 -0 -1 -0 -0 -0 -0 -0 -0 -0 -0 -1 -1 0 -0 -1 0 0 1 2 3 3 4 4 3 2 1 3 4 6 7 8 8 10 8 7 7 7 7 7 7 9 7 8 9 6 6
-0 -0 -1 -1 -0 -1 -0 -0 -0 -0 -0 -1 -1 -0 -1 -1 -1 -0 1 1 2 2 3 1 2 2 1 3 4 7 7 8 9 8 11 8 10 9 9 9 7 7 7 6 6 7 5
Height
1543 1545 1548 1550 1550 1551 1552 1552 1553 1553 1552 1554 1553 1554 1552 1552 1553 1552 1550 1550 1549 1547 1544 1542 1540 1537 1536 1538 1536 1531 1530 1530 1529 1529 1528 1528 1527 1525 1521 1523 1522 1520 1520 1520 1519 1519 1518
1537 1540 1543 1545 1547 1546 1548 1549 1548 1549 1549 1549 1549 1550 1549 1548 1549 1548 1546 1547 1548 1545 1542 1540 1538 1535 1539 1535 1530 1529 1530 1530 1528 1528 1529 1528 1527 1527 1526 1524 1522 1522 1520 1518 1518 1516 1517
1534 1537 1539 1540 1541 1542 1542 1543 1544 1544 1544 1545 1545 1546 1547 1544 1545 1544 1543 1542 1543 1542 1540 1538 1536 1534 1533 1531 1527 1528 1527 1529 1529 1528 1528 1527 1529 1527 1525 1523 1525 1523 1518 1512 1511 1513 1513
1528 1530 1532 1535 1536 1537 1539 1538 1539 1540 1541 1542 1541 1541 1543 1542 1541 1540 1540 1539 1539 1538 1536 1535 1534 1534 1529 1524 1523 1523 1526 1525 1527 1527 1527 1525 1526 1527 1525 1524 1522 1517 1515 1505 1508 1510 1512
1522 1525 1527 1529 1528 1532 1532 1533 1534 1536 1537 1537 1538 1539 1537 1538 1537 1535 1535 1537 1534 1534 1532 1532 1533 1532 1527 1523 1521 1521 1522 1525 1526 1527 1527 1525 1525 1525 1523 1516 1513 1513 1503 1505 1504 1507 1507
1519 1521 1520 1522 1523 1526 1525 1527 1529 1530 1532 1533 1533 1534 1534 1534 1534 1533 1532 1533 1532 1530 1529 1528 1529 1533 1525 1524 1519 1519 1520 1521 1525 1525 1528 1527 1524 1518 1518 1513 1507 1502 1510 1506 1505 1502 1506
1515 1517 1514 1517 1517 1519 1521 1522 1523 1527 1526 1530 1530 1531 1529 1530 1529 1530 1531 1532 1535 1531 1526 1525 1525 1524 1523 1522 1518 1518 1519 1521 1523 1524 1520 1523 1518 1510 1505 1513 1515 1513 1512 1509 1504 1503 1510
1509 1511 1510 1511 1514 1517 1514 1517 1519 1522 1524 1525 1527 1526 1526 1525 1527 1528 1527 1534 1531 1530 1526 1520 1518 1519 1520 1521 1519 1518 1519 1520 1522 1516 1520 1521 1512 1511 1516 1518 1518 1515 1512 1507 1503 1505 1506
1505 1504 1508 1509 1509 1509 1512 1511 1515 1517 1519 1520 1523 1523 1524 1521 1523 1527 1528 1528 1529 1528 1528 1518 1515 1514 1518 1520 1516 1517 1519 1518 1518 1517 1516 1513 1509 1516 1516 1514 1515 1510 1511 1508 1509 1505 1502
1500 1502 1502 1505 1505 1507 1505 1510 1508 1514 1515 1515 1519 1521 1521 1521 1526 1523 1526 1526 1528 1528 1524 1511 1514 1514 1512 1517 1515 1513 1514 1518 1518 1515 1515 1514 1513 1515 1513 1513 1512 1512 1506 1513 1511 1507 1500
1495 1497 1498 1502 1504 1504 1503 1504 1509 1508 1510 1512 1515 1518 1519 1520 1520 1524 1523 1524 1526 1529 1519 1513 1514 1514 1515 1516 1513 1513 1512 1515 1514 1514 1519 1511 1513 1512 1513 1511 1513 1509 1512 1511 1509 1505 1499
1490 1492 1495 1495 1501 1502 1504 1504 1505 1508 1508 1510 1512 1515 1517 1519 1520 1522 1521 1525 1527 1527 1517 1509 1510 1512 1514 1514 1512 1515 1514 1514 1515 1513 1513 1510 1511 1514 1508 1509 1511 1511 1510 1505 1501 1501 1498
1484 1487 1489 1492 1496 1499 1501 1503 1505 1506 1507 1510 1512 1514 1517 1517 1520 1521 1523 1526 1526 1517 1508 1510 1507 1509 1510 1510 1511 1512 1512 1510 1507 1509 1505 1505 1501 1503 1505 1507 1505 1507 1509 1506 1500 1495 1490
1477 1482 1485 1486 1491 1495 1499 1501 1501 1504 1506 1508 1511 1514 1516 1517 1518 1520 1524 1527 1519 1505 1507 1509 1508 1505 1507 1509 1510 1511 1509 1507 1507 1507 1502 1501 1499 1499 1504 1502 1499 1501 1499 1503 1501 1484 1481
1470 1475 1480 1482 1485 1490 1496 1498 1499 1502 1505 1507 1509 1511 1515 1518 1517 1520 1525 1523 1501 1504 1508 1507 1507 1504 1506 1508 1511 1510 1507 1504 1503 1505 1507 1502 1501 1499 1501 1500 1500 1498 1501 1494 1499 1495 1497
1463 1467 1472 1477 1480 1485 1488 1494 1496 1499 1503 1505 1508 1510 1513 1515 1517 1521 1524 1512 1510 1513 1513 1510 1505 1507 1508 1507 1513 1509 1506 1504 1503 1506 1506 1502 1505 1497 1498 1499 1498 1497 1493 1500 1500 1501 1486
1454 1460 1465 1470 1475 1480 1484 1489 1492 1497 1499 1503 1508 1511 1509 1512 1517 1520 1517 1510 1513 1515 1515 1513 1510 1511 1512 1513 1513 1511 1506 1503 1505 1507 1507 1502 1503 1499 1499 1494 1488 1492 1493 1494 1497 1495 1489
1446 1452 1458 1463 1469 1474 1479 1485 1489 1491 1497 1502 1506 1509 1508 1510 1518 1513 1511 1514 1514 1514 1515 1515 1515 1514 1515 1515 1514 1512 1507 1505 1507 1509 1506 1503 1501 1502 1493 1488 1490 1487 1485 1485 1494 1488 1487
1437 1443 1450 1455 1461 1468 1475 1480 1484 1488 1494 1498 1502 1505 1507 1509 1507 1510 1512 1513 1512 1514 1513 1515 1514 1517 1517 1518 1520 1515 1510 1508 1508 1508 1504 1502 1501 1496 1483 1488 1488 1487 1483 1483 1483 1488 1488
1426 1433 1440 1447 1453 1462 1469 1474 1481 1485 1490 1497 1501 1504 1506 1509 1507 1502 1505 1508 1511 1513 1513 1515 1516 1518 1516 1519 1515 1516 1509 1508 1509 1508 1510 1508 1500 1498 1492 1485 1484 1485 1481 1480 1483 1494 1482
1417 1424 1431 1438 1445 1454 1462 1469 1476 1481 1487 1494 1495 1495 1495 1498 1503 1505 1506 1506 1507 1511 1512 1512 1512 1512 1513 1518 1513 1509 1508 1507 1506 1505 1505 1507 1501 1496 1491 1487 1484 1483 1482 1481 1480 1476 1480
1409 1416 1424 1425 1439 1448 1455 1464 1470 1476 1484 1489 1491 1493 1494 1493 1498 1502 1505 1504 1503 1505 1508 1508 1507 1507 1510 1507 1508 1506 1505 1506 1506 1500 1497 1499 1497 1504 1500 1490 1483 1483 1487 1489 1480 1474 1470
1400 1407 1415 1422 1432 1442 1450 1457 1463 1470 1479 1480 1486 1487 1493 1491 1492 1499 1499 1500 1501 1504 1504 1504 1505 1506 1504 1504 1506 1505 1505 1505 1505 1502 1501 1503 1499 1496 1486 1478 1476 1475 1475 1473 1464 1462 1464
1391 1397 1408 1417 1426 1436 1444 1450 1458 1465 1471 1476 1480 1487 1490 1487 1490 1491 1494 1497 1498 1499 1499 1500 1502 1504 1501 1503 1504 1503 1501 1498 1497 1495 1498 1496 1495 1493 1488 1481 1478 1462 1460 1459 1459 1456 1455
1383 1390 1399 1410 1419 1429 1438 1446 1453 1460 1467 1473 1478 1483 1487 1486 1487 1489 1491 1492 1493 1494 1496 1497 1494 1496 1499 1501 1502 1498 1487 1491 1481 1481 1486 1491 1492 1486 1483 1465 1454 1450 1450 1459 1458 1450 1450
1376 1384 1394 1404 1414 1424 1434 1442 1450 1456 1463 1471 1475 1479 1483 1486 1483 1487 1487 1488 1488 1488 1491 1489 1488 1490 1493 1494 1494 1484 1472 1468 1464 1467 1471 1479 1484 1484 1471 1471 1457 1447 1452 1457 1457 1449 1452
1373 1380 1386 1399 1411 1421 1430 1439 1446 1453 1459 1466 1470 1475 1481 1482 1481 1483 1484 1485 1485 1484 1485 1485 1485 1484 1485 1486 1483 1473 1465 1460 1458 1457 1471 1475 1478 1478 1471 1464 1451 1447 1453 1457 1456 1449 1452
1370 1378 1387 1398 1409 1418 1427 1435 1442 1449 1455 1461 1466 1471 1476 1477 1477 1478 1479 1482 1482 1482 1481 1481 1485 1479 1480 1479 1473 1463 1460 1456 1455 1449 1455 1460 1464 1462 1462 1461 1456 1448 1455 1454 1449 1452 1453
1369 1377 1388 1399 1408 1416 1424 1432 1438 1445 1451 1458 1463 1466 1472 1474 1474 1473 1473 1475 1477 1478 1481 1480 1478 1477 1476 1473 1468 1458 1456 1452 1449 1448 1446 1452 1448 1449 1449 1443 1447 1449 1451 1451 1452 1452 1454
Wind_Speed
25 24 23 21 21 20 22 22 23 24 24 25 24 24 21 21 22 20 20 20 21 22 26 23 22 22 19 9 9 10 7 6 8 8 8 7 6 3 3 1 3 6 2 4 4 5 4
23 22 23 24 24 23 22 22 24 25 26 24 24 22 21 20 21 20 20 23 22 22 27 23 20 21 13 11 9 8 7 6 6 4 6 5 2 2 2 2 5 2 6 9 7 9 6
29 28 28 23 21 23 23 25 25 24 23 23 22 21 21 20 20 21 23 25 21 23 24 25 20 21 13 13 8 9 10 9 6 4 2 3 2 2 1 3 2 4 8 7 7 6 7
25 24 19 23 22 24 26 25 22 22 22 22 22 21 21 20 20 21 22 20 22 21 21 23 21 19 9 14 11 11 11 7 9 5 1 1 0 1 3 2 4 6 5 8 6 3 3
19 22 25 25 27 29 27 28 25 23 23 23 21 21 20 20 20 20 20 19 19 20 20 21 17 6 10 2 2 1 2 6 7 6 4 3 1 3 4 5 7 6 10 6 5 4 3
27 29 33 31 30 31 30 29 24 23 23 22 20 21 19 19 18 18 17 15 17 16 20 16 14 7 7 3 4 4 3 6 5 6 4 5 4 6 4 7 9 9 9 9 9 3 8
25 27 30 29 28 28 27 27 21 20 20 22 19 19 17 17 17 15 10 6 7 4 4 7 3 7 5 6 4 1 3 5 6 8 8 4 7 9 9 5 7 9 11 14 13 5 7
21 20 16 19 20 21 24 20 20 21 19 20 16 18 16 15 13 10 5 5 4 4 10 13 16 19 16 10 5 3 4 7 9 11 5 6 10 9 4 4 7 10 13 15 14 14 11
24 23 21 18 17 20 19 17 17 17 18 19 16 16 13 11 9 8 6 6 6 4 6 6 5 7 6 9 7 10 6 4 7 9 10 13 7 1 4 7 9 12 11 13 14 14 16
25 22 22 22 17 19 18 14 15 16 15 17 14 12 10 6 5 8 6 7 4 2 4 4 3 2 3 5 3 2 7 9 6 9 9 10 5 9 11 13 13 15 11 10 12 12 13
25 23 22 24 20 17 14 13 15 13 12 12 13 10 7 11 6 7 7 8 5 1 5 3 4 2 3 3 1 3 4 7 12 7 4 1 3 3 5 5 3 7 1 4 9 12 14
25 24 21 22 22 16 14 12 14 11 11 11 10 9 7 10 8 8 10 11 6 3 7 3 4 3 4 4 1 4 2 3 1 6 12 15 10 9 10 7 9 5 10 14 14 11 13
26 24 22 22 22 19 17 15 13 10 14 14 10 8 7 11 7 9 14 10 3 5 3 4 3 4 2 3 3 3 3 5 3 4 5 3 9 12 17 13 13 14 12 7 6 8 11
29 26 25 22 23 23 21 17 15 10 14 16 13 10 9 11 11 14 15 3 7 0 1 1 1 5 4 1 2 2 3 5 7 7 7 5 4 3 3 10 5 4 10 8 9 11 8
31 29 29 26 24 24 21 18 16 12 13 19 17 13 10 11 11 15 9 5 2 2 2 2 3 5 4 3 2 3 4 8 4 9 5 4 4 2 7 4 6 4 7 7 10 15 11
34 34 31 30 27 26 24 22 19 15 15 21 20 12 9 13 12 10 5 4 2 1 2 1 5 1 4 3 3 3 3 3 2 4 8 3 8 5 3 9 16 14 6 7 5 7 16
35 35 34 31 31 27 26 23 21 18 16 19 15 7 9 12 12 10 5 5 2 1 2 3 1 2 2 4 6 9 5 3 3 2 3 4 6 3 5 8 10 6 10 7 5 6 6
34 36 36 34 33 30 28 25 24 20 20 21 14 5 12 19 8 6 8 5 3 3 2 1 2 5 7 3 7 7 10 7 4 1 5 5 4 8 15 13 13 14 13 12 7 11 8
35 36 36 38 37 33 31 26 25 23 25 24 13 3 14 19 7 7 5 6 6 5 5 2 4 5 3 4 5 7 9 5 10 13 3 1 5 9 12 10 8 10 10 9 9 10 14
40 39 38 39 39 36 34 28 27 25 25 24 10 5 6 14 5 9 10 8 7 7 11 8 4 5 7 4 9 4 6 4 3 3 6 7 10 15 14 14 9 13 14 12 12 6 12
40 41 41 46 41 40 32 30 30 28 25 25 11 5 9 6 10 8 8 3 10 8 11 8 5 14 9 5 10 15 13 14 18 21 20 9 15 15 18 17 17 17 18 18 20 19 18
44 42 43 40 39 41 37 34 31 30 29 28 10 5 7 4 17 19 12 7 13 9 7 8 12 6 9 15 10 10 12 11 7 4 4 3 10 7 6 13 16 15 9 13 20 24 24
44 44 42 40 39 41 38 36 38 35 36 19 19 12 10 9 12 10 14 14 8 11 13 20 13 10 14 15 18 19 19 17 16 14 13 9 6 6 14 12 12 13 15 18 18 16 13
40 43 44 40 40 42 38 39 41 34 41 22 24 13 9 5 8 12 9 18 16 16 14 12 12 15 5 4 11 15 18 18 18 20 20 13 13 9 10 12 11 2 3 8 12 13 14
33 44 46 47 45 41 37 40 39 38 39 35 19 16 9 5 10 12 15 17 16 17 20 22 24 25 23 2 3 5 5 4 12 22 20 19 14 8 7 11 14 13 10 6 6 12 6
33 39 44 46 42 40 37 37 38 39 36 35 26 20 11 5 11 16 7 13 11 12 12 20 22 16 12 6 5 7 7 5 4 3 17 19 17 11 9 5 7 4 3 3 3 7 1
33 37 40 45 43 40 38 34 34 35 35 34 29 31 17 10 11 5 5 6 7 10 4 4 6 6 17 5 6 8 9 6 5 5 7 10 9 16 14 12 8 8 7 8 6 2 4
31 33 42 42 38 37 37 37 36 35 33 33 32 29 28 10 16 10 12 21 16 15 8 5 5 4 3 6 6 4 6 8 6 6 10 11 8 8 10 9 10 9 9 6 3 4 4
34 37 37 38 37 37 36 34 32 31 32 33 26 28 23 18 7 11 22 26 25 20 18 9 6 4 6 4 4 4 4 4 10 8 11 7 10 4 6 3 3 12 1 4 3 5 4
Wind_Direction
240 245 248 249 252 260 267 271 278 282 284 285 285 285 282 278 278 283 290 293 298 303 304 311 312 325 336 311 282 274 278 297 331 341 352 359 6 341 303 283 274 259 279 263 254 255 267
237 238 246 252 259 262 267 273 278 281 282 281 282 281 280 282 276 270 279 287 292 293 298 314 318 322 329 285 268 267 274 291 310 349 355 5 356 338 308 294 287 325 283 272 270 256 239
247 252 251 245 255 261 268 277 277 276 277 278 278 280 278 279 280 275 272 279 285 291 295 307 321 321 310 279 272 270 257 281 279 323 345 360 319 274 265 253 316 284 285 242 232 249 226
233 235 251 254 254 261 271 276 274 274 275 276 277 277 278 279 277 277 278 280 283 283 286 299 310 313 267 284 289 277 258 247 267 274 232 243 321 245 263 258 235 253 245 260 141 192 153
243 253 257 253 252 261 265 268 268 271 271 274 278 279 278 278 276 276 278 277 279 288 293 297 302 298 277 293 73 352 245 228 218 238 231 222 244 235 208 234 243 210 270 250 254 213 203
259 253 257 254 258 262 264 263 263 265 268 271 275 276 276 277 277 275 273 278 282 295 292 291 272 267 256 231 243 238 260 189 194 186 214 229 230 240 212 234 271 306 269 254 266 171 237
265 265 258 257 256 261 262 261 255 256 260 270 271 271 271 273 274 274 282 293 295 284 270 231 264 282 297 301 255 205 213 178 192 213 228 198 245 251 318 323 302 280 269 274 281 271 293
256 267 262 255 249 250 257 253 251 251 255 264 264 265 266 262 266 268 247 258 239 270 297 258 253 259 260 268 290 219 185 198 212 233 190 218 247 300 284 281 263 263 270 270 273 270 284
246 254 254 252 260 252 251 252 245 249 246 253 254 260 263 259 245 242 224 208 258 308 264 271 241 252 257 220 239 259 223 209 235 237 230 260 281 327 244 262 271 260 273 280 277 298 284
246 248 254 252 247 256 239 240 230 239 232 240 244 249 257 242 224 216 203 215 225 271 277 169 193 218 171 195 213 235 221 215 218 261 256 272 310 263 262 264 274 279 294 276 281 279 274
242 240 250 252 239 246 236 226 229 237 224 215 224 232 256 186 196 181 202 183 168 57 280 111 124 172 173 218 31 44 150 204 241 215 240 177 237 240 263 279 290 295 189 282 297 290 288
240 241 248 237 235 232 244 255 232 251 197 185 199 213 227 184 186 191 169 157 141 205 244 140 131 170 184 209 126 122 127 144 206 239 239 259 271 270 266 275 240 291 260 275 272 272 261
233 236 236 231 231 229 238 242 238 251 190 184 194 189 192 173 178 174 159 149 173 223 118 158 157 177 209 145 152 200 179 190 255 252 212 260 249 249 241 253 247 243 264 274 263 216 255
231 233 229 235 228 236 234 230 231 227 194 183 187 201 187 177 166 162 157 198 217 39 149 54 178 149 189 161 132 189 200 241 228 246 280 277 253 200 128 223 290 257 243 238 268 278 318
227 228 230 228 223 224 224 226 221 215 204 190 189 190 206 198 173 168 175 213 263 160 118 172 154 209 191 204 268 242 251 269 281 222 248 289 241 182 229 197 226 138 227 262 282 273 273
230 228 226 224 221 218 218 220 216 215 206 193 187 184 203 194 181 168 208 241 209 83 347 203 210 270 194 174 234 240 242 135 223 244 256 298 284 265 306 226 242 250 295 241 231 258 257
230 225 223 222 218 218 213 214 210 209 194 184 185 183 203 184 164 174 209 218 191 185 10 8 153 194 226 267 263 261 257 192 261 75 208 307 246 234 238 231 261 186 219 227 261 247 279
228 225 222 217 214 209 205 209 202 200 183 176 170 196 181 166 173 194 207 206 166 165 195 234 299 260 246 230 264 250 248 235 112 33 287 288 285 262 268 268 263 264 262 256 247 263 250
228 222 221 213 210 204 201 200 195 194 184 174 171 149 174 170 196 194 170 198 191 191 226 203 211 222 214 242 245 259 263 271 279 281 295 16 230 272 253 204 227 238 237 248 269 284 265
221 223 215 214 204 201 200 199 193 189 186 174 162 169 168 199 236 206 185 200 203 212 237 235 236 231 227 237 240 246 239 245 193 286 354 316 260 260 266 285 293 276 275 259 259 256 267
222 214 218 210 209 195 195 200 196 189 187 179 182 204 184 189 203 197 190 191 211 215 216 204 219 232 227 230 254 250 264 273 267 270 270 260 265 263 274 281 276 275 276 279 274 263 261
226 212 217 204 191 194 197 202 199 192 187 190 180 176 187 172 198 203 199 217 223 200 194 207 230 230 237 240 230 281 290 287 296 68 34 238 265 331 271 269 266 267 241 252 263 269 267
224 215 214 208 201 200 203 202 198 195 188 198 207 194 185 177 182 194 213 217 220 226 227 241 251 261 257 260 269 273 278 270 259 272 273 266 258 286 278 271 270 268 238 240 256 248 256
221 213 206 207 199 201 203 197 201 190 197 194 201 187 200 193 205 202 211 221 229 234 242 245 238 242 259 301 267 267 269 259 252 245 245 247 252 255 274 287 254 254 258 259 255 265 255
213 207 200 193 194 194 197 196 202 195 201 203 207 190 194 222 225 235 242 244 248 251 246 254 257 255 268 227 230 259 231 237 242 234 223 221 237 236 244 245 263 284 245 223 224 281 258
213 200 196 195 196 188 191 194 196 193 201 208 212 221 209 239 230 222 243 236 241 242 255 257 269 261 245 196 193 230 233 227 205 219 207 219 216 217 238 257 269 23 133 184 209 257 149
204 197 193 186 187 187 190 197 198 197 206 208 215 220 213 228 235 215 192 234 223 207 255 291 290 248 212 185 209 229 231 216 225 202 167 188 206 222 236 251 263 255 166 144 238 19 134
196 192 181 183 186 185 189 197 202 205 206 207 214 221 218 230 244 231 236 237 248 243 253 260 287 206 179 201 221 204 229 207 235 219 180 187 194 211 231 249 261 144 137 218 71 106 129
193 178 179 182 184 187 193 199 204 208 209 208 208 221 221 225 243 229 239 239 241 244 260 221 258 253 223 242 231 220 217 204 225 226 212 230 221 244 229 238 91 186 303 183 175 161 165